N87JW KSLC-KSDL

Flight info

Callsign N87JW
Flight time 1h 43m
Altitude 25000
Route FFU9 BCE FLG DSERT2
Aircraft PC12/L-SDFGRWY/S

Departure

Time 2026-05-06 13:15
Airport Salt Lake City International Airport (KSLC)

Arrival

Time 2026-05-06 14:58
Airport Scottsdale Airport (KSDL)
Time Latitude Longitude Altitude Speed Heading
2026-05-06 13:06 40.77605 -111.95861 4244 ft 0 kts 180°
2026-05-06 13:08 40.77593 -111.95861 4257 ft 4 kts 180°
2026-05-06 13:08 40.77578 -111.95902 4241 ft 7 kts 270°
2026-05-06 13:08 40.77578 -111.95975 4254 ft 8 kts 269°
2026-05-06 13:08 40.77590 -111.96047 4270 ft 8 kts 309°
2026-05-06 13:09 40.77644 -111.96066 4269 ft 9 kts 359°
2026-05-06 13:09 40.77712 -111.96064 4269 ft 11 kts
2026-05-06 13:09 40.77797 -111.96065 4268 ft 13 kts
2026-05-06 13:09 40.77873 -111.96014 4268 ft 13 kts 28°
2026-05-06 13:10 40.77959 -111.96002 4268 ft 12 kts
2026-05-06 13:10 40.78043 -111.96003 4268 ft 12 kts 360°
2026-05-06 13:10 40.78122 -111.96003 4267 ft 11 kts
2026-05-06 13:10 40.78202 -111.96003 4227 ft 13 kts 359°
2026-05-06 13:11 40.78300 -111.96004 4226 ft 15 kts 359°
2026-05-06 13:11 40.78406 -111.96004 4226 ft 15 kts
2026-05-06 13:11 40.78508 -111.96004 4225 ft 15 kts
2026-05-06 13:11 40.78612 -111.96004 4225 ft 15 kts
2026-05-06 13:12 40.78710 -111.96003 4225 ft 14 kts 359°
2026-05-06 13:12 40.78812 -111.96003 4225 ft 15 kts 360°
2026-05-06 13:12 40.78915 -111.96004 4228 ft 15 kts 360°
2026-05-06 13:12 40.79016 -111.96004 4226 ft 14 kts
2026-05-06 13:13 40.79111 -111.96002 4227 ft 10 kts
2026-05-06 13:13 40.79147 -111.96063 4226 ft 10 kts 272°
2026-05-06 13:13 40.79148 -111.96153 4226 ft 10 kts 270°
2026-05-06 13:13 40.79134 -111.96210 4227 ft 8 kts 175°
2026-05-06 13:14 40.79120 -111.96209 4226 ft 0 kts 179°
2026-05-06 13:14 40.79025 -111.96209 4225 ft 36 kts 180°
2026-05-06 13:14 40.78610 -111.96214 4225 ft 81 kts 182°
2026-05-06 13:15 40.77964 -111.96209 4382 ft 101 kts 179°
2026-05-06 13:15 40.77200 -111.96181 4626 ft 115 kts 180°
2026-05-06 13:15 40.76371 -111.96058 4972 ft 126 kts 173°
2026-05-06 13:15 40.75466 -111.95859 5327 ft 139 kts 172°
2026-05-06 13:16 40.74469 -111.95622 5678 ft 150 kts 171°
2026-05-06 13:16 40.73400 -111.95410 5998 ft 163 kts 170°
2026-05-06 13:16 40.72246 -111.95237 6440 ft 168 kts 172°
2026-05-06 13:16 40.71101 -111.95079 7014 ft 170 kts 171°
2026-05-06 13:17 40.69879 -111.94845 7457 ft 179 kts 173°
2026-05-06 13:17 40.68609 -111.94765 7871 ft 189 kts 180°
2026-05-06 13:17 40.67295 -111.94751 8457 ft 189 kts 181°
2026-05-06 13:17 40.65972 -111.94739 9010 ft 192 kts 181°
2026-05-06 13:18 40.64621 -111.94723 9556 ft 196 kts 181°
2026-05-06 13:18 40.63245 -111.94702 10110 ft 199 kts 181°
2026-05-06 13:18 40.61844 -111.94679 10614 ft 203 kts 182°
2026-05-06 13:18 40.60416 -111.94654 11114 ft 207 kts 182°
2026-05-06 13:19 40.58969 -111.94628 11594 ft 209 kts 182°
2026-05-06 13:19 40.57501 -111.94603 12062 ft 213 kts 183°
2026-05-06 13:19 40.56013 -111.94576 12520 ft 216 kts 184°
2026-05-06 13:19 40.54496 -111.94549 12987 ft 219 kts 184°
2026-05-06 13:20 40.52963 -111.94521 13437 ft 221 kts 184°
2026-05-06 13:20 40.51431 -111.94494 13858 ft 225 kts 185°
2026-05-06 13:20 40.49838 -111.94465 14248 ft 227 kts 184°
2026-05-06 13:20 40.48268 -111.94436 14618 ft 230 kts 184°
2026-05-06 13:21 40.46653 -111.94406 14964 ft 234 kts 184°
2026-05-06 13:21 40.45013 -111.94377 15351 ft 237 kts 184°
2026-05-06 13:21 40.43349 -111.94346 15729 ft 240 kts 183°
2026-05-06 13:21 40.41668 -111.94314 16110 ft 243 kts 183°
2026-05-06 13:22 40.39967 -111.94282 16494 ft 246 kts 182°
2026-05-06 13:22 40.38249 -111.94250 16868 ft 248 kts 182°
2026-05-06 13:22 40.36510 -111.94219 17252 ft 251 kts 181°
2026-05-06 13:22 40.34752 -111.94186 17644 ft 254 kts 181°
2026-05-06 13:23 40.32971 -111.94153 18051 ft 257 kts 181°
2026-05-06 13:23 40.31174 -111.94121 18405 ft 259 kts 181°
2026-05-06 13:23 40.29360 -111.94087 18734 ft 261 kts 180°
2026-05-06 13:23 40.27541 -111.94104 19067 ft 262 kts 184°
2026-05-06 13:24 40.25729 -111.94295 19377 ft 261 kts 189°
2026-05-06 13:24 40.23920 -111.94563 19683 ft 262 kts 189°
2026-05-06 13:24 40.22101 -111.94827 19958 ft 264 kts 189°
2026-05-06 13:24 40.20268 -111.95095 20288 ft 265 kts 189°
2026-05-06 13:25 40.18458 -111.95362 20598 ft 266 kts 189°
2026-05-06 13:25 40.16618 -111.95631 20900 ft 267 kts 189°
2026-05-06 13:25 40.14762 -111.95902 21209 ft 269 kts 189°
2026-05-06 13:25 40.12896 -111.96174 21516 ft 270 kts 189°
2026-05-06 13:26 40.11017 -111.96447 21815 ft 272 kts 189°
2026-05-06 13:26 40.09134 -111.96720 22126 ft 273 kts 188°
2026-05-06 13:26 40.07241 -111.96995 22395 ft 275 kts 188°
2026-05-06 13:26 40.05336 -111.97271 22712 ft 275 kts 189°
2026-05-06 13:27 40.03431 -111.97546 23052 ft 276 kts 189°
2026-05-06 13:27 40.01520 -111.97824 23358 ft 277 kts 188°
2026-05-06 13:27 39.99601 -111.98102 23654 ft 279 kts 188°
2026-05-06 13:27 39.97667 -111.98383 23907 ft 280 kts 188°
2026-05-06 13:28 39.95726 -111.98664 24163 ft 281 kts 188°
2026-05-06 13:28 39.93771 -111.98946 24420 ft 283 kts 188°
2026-05-06 13:28 39.91811 -111.99229 24666 ft 284 kts 188°
2026-05-06 13:28 39.90504 -111.99418 24854 ft 285 kts 188°
2026-05-06 13:29 39.88508 -111.99707 24932 ft 295 kts 188°
2026-05-06 13:29 39.85737 -112.00111 24936 ft 309 kts 188°
2026-05-06 13:29 39.83570 -112.00426 24983 ft 316 kts 188°
2026-05-06 13:29 39.81366 -112.00745 25000 ft 322 kts 188°
2026-05-06 13:30 39.79879 -112.00960 25002 ft 325 kts 188°
2026-05-06 13:30 39.77617 -112.01287 25007 ft 328 kts 188°
2026-05-06 13:30 39.75338 -112.01615 25006 ft 330 kts 188°
2026-05-06 13:30 39.73046 -112.01944 25008 ft 332 kts 188°
2026-05-06 13:31 39.70744 -112.02275 25004 ft 333 kts 188°
2026-05-06 13:31 39.68438 -112.02603 25001 ft 334 kts 188°
2026-05-06 13:31 39.66124 -112.02932 25002 ft 334 kts 188°
2026-05-06 13:31 39.63810 -112.03262 25006 ft 335 kts 188°
2026-05-06 13:32 39.61493 -112.03593 25004 ft 334 kts 188°
2026-05-06 13:32 39.59181 -112.03923 24999 ft 334 kts 188°
2026-05-06 13:32 39.56872 -112.04253 24998 ft 334 kts 188°
2026-05-06 13:32 39.54567 -112.04581 25000 ft 333 kts 188°
2026-05-06 13:33 39.52290 -112.04905 25001 ft 333 kts 188°
2026-05-06 13:33 39.49983 -112.05234 25002 ft 334 kts 188°
2026-05-06 13:33 39.47676 -112.05563 25002 ft 334 kts 188°
2026-05-06 13:33 39.45364 -112.05892 25003 ft 334 kts 188°
2026-05-06 13:34 39.43055 -112.06220 25003 ft 334 kts 188°
2026-05-06 13:34 39.40744 -112.06549 24999 ft 334 kts 188°
2026-05-06 13:34 39.38435 -112.06877 24996 ft 334 kts 188°
2026-05-06 13:34 39.36125 -112.07205 25000 ft 334 kts 188°
2026-05-06 13:35 39.33813 -112.07534 25000 ft 334 kts 188°
2026-05-06 13:35 39.31504 -112.07861 24999 ft 334 kts 188°
2026-05-06 13:35 39.29189 -112.08189 24998 ft 334 kts 188°
2026-05-06 13:35 39.26881 -112.08516 24997 ft 334 kts 188°
2026-05-06 13:36 39.24570 -112.08843 24998 ft 334 kts 188°
2026-05-06 13:36 39.22261 -112.09170 25007 ft 334 kts 188°
2026-05-06 13:36 39.19955 -112.09496 25016 ft 334 kts 188°
2026-05-06 13:36 39.17641 -112.09823 25024 ft 334 kts 188°
2026-05-06 13:37 39.15331 -112.10149 25029 ft 334 kts 188°
2026-05-06 13:37 39.13054 -112.10472 25038 ft 333 kts 188°
2026-05-06 13:37 39.10752 -112.10795 25040 ft 332 kts 188°
2026-05-06 13:37 39.08449 -112.11118 25044 ft 332 kts 188°
2026-05-06 13:38 39.06154 -112.11441 25051 ft 331 kts 188°
2026-05-06 13:38 39.03875 -112.11762 25043 ft 329 kts 188°
2026-05-06 13:38 39.01593 -112.12082 25050 ft 330 kts 188°
2026-05-06 13:38 38.99315 -112.12403 25056 ft 330 kts 188°
2026-05-06 13:39 38.97029 -112.12722 25061 ft 330 kts 188°
2026-05-06 13:39 38.94750 -112.13041 25039 ft 330 kts 188°
2026-05-06 13:39 38.92471 -112.13358 25047 ft 329 kts 188°
2026-05-06 13:39 38.90192 -112.13683 25053 ft 328 kts 188°
2026-05-06 13:40 38.87921 -112.14006 25058 ft 328 kts 187°
2026-05-06 13:40 38.85650 -112.14326 25058 ft 329 kts 187°
2026-05-06 13:40 38.83373 -112.14644 25050 ft 329 kts 187°
2026-05-06 13:40 38.81097 -112.14961 25040 ft 329 kts 187°
2026-05-06 13:41 38.78820 -112.15278 25034 ft 329 kts 187°
2026-05-06 13:41 38.76545 -112.15595 25022 ft 329 kts 187°
2026-05-06 13:41 38.74265 -112.15912 24995 ft 329 kts 187°
2026-05-06 13:41 38.71997 -112.16228 24993 ft 328 kts 187°
2026-05-06 13:42 38.69726 -112.16544 24991 ft 328 kts 187°
2026-05-06 13:42 38.67461 -112.16860 24978 ft 327 kts 187°
2026-05-06 13:42 38.65201 -112.17174 24955 ft 327 kts 187°
2026-05-06 13:42 38.62968 -112.17483 24961 ft 327 kts 187°
2026-05-06 13:43 38.60697 -112.17798 24963 ft 327 kts 187°
2026-05-06 13:43 38.58434 -112.18112 24956 ft 327 kts 187°
2026-05-06 13:43 38.56173 -112.18426 24950 ft 327 kts 187°
2026-05-06 13:43 38.53905 -112.18740 24955 ft 328 kts 187°
2026-05-06 13:44 38.51637 -112.19055 24949 ft 328 kts 187°
2026-05-06 13:44 38.49367 -112.19370 24950 ft 328 kts 187°
2026-05-06 13:44 38.47101 -112.19684 24940 ft 327 kts 187°
2026-05-06 13:44 38.44835 -112.19997 24941 ft 327 kts 187°
2026-05-06 13:45 38.42572 -112.20310 24945 ft 327 kts 187°
2026-05-06 13:45 38.38047 -112.20935 24936 ft 327 kts 187°
2026-05-06 13:45 38.35782 -112.21248 24938 ft 327 kts 187°
2026-05-06 13:46 38.33518 -112.21560 24936 ft 327 kts 187°
2026-05-06 13:46 38.31253 -112.21873 24925 ft 327 kts 187°
2026-05-06 13:46 38.29020 -112.22180 24925 ft 326 kts 187°
2026-05-06 13:46 38.26760 -112.22492 24928 ft 325 kts 187°
2026-05-06 13:47 38.24511 -112.22801 24927 ft 325 kts 187°
2026-05-06 13:47 38.22266 -112.23110 24930 ft 325 kts 187°
2026-05-06 13:47 38.20018 -112.23419 24921 ft 324 kts 187°
2026-05-06 13:47 38.17772 -112.23727 24922 ft 324 kts 187°
2026-05-06 13:48 38.15529 -112.24035 24923 ft 324 kts 187°
2026-05-06 13:48 38.13288 -112.24342 24923 ft 324 kts 187°
2026-05-06 13:48 38.11040 -112.24650 24918 ft 324 kts 187°
2026-05-06 13:48 38.08792 -112.24957 24916 ft 324 kts 187°
2026-05-06 13:49 38.06545 -112.25265 24911 ft 324 kts 187°
2026-05-06 13:49 38.04306 -112.25572 24919 ft 324 kts 187°
2026-05-06 13:49 38.02072 -112.25878 24916 ft 323 kts 187°
2026-05-06 13:49 37.99866 -112.26180 24914 ft 322 kts 187°
2026-05-06 13:50 37.97634 -112.26486 24914 ft 322 kts 187°
2026-05-06 13:50 37.95402 -112.26790 24987 ft 322 kts 187°
2026-05-06 13:50 37.93179 -112.27093 24983 ft 321 kts 187°
2026-05-06 13:50 37.90953 -112.27396 25004 ft 322 kts 187°
2026-05-06 13:51 37.88725 -112.27699 25013 ft 321 kts 187°
2026-05-06 13:51 37.86497 -112.28002 25030 ft 321 kts 187°
2026-05-06 13:51 37.84278 -112.28305 25030 ft 320 kts 187°
2026-05-06 13:51 37.82061 -112.28607 25050 ft 320 kts 187°
2026-05-06 13:52 37.79854 -112.28907 25064 ft 319 kts 186°
2026-05-06 13:52 37.77670 -112.29203 25072 ft 319 kts 186°
2026-05-06 13:52 37.75465 -112.29502 25078 ft 318 kts 186°
2026-05-06 13:52 37.73261 -112.29801 25084 ft 318 kts 186°
2026-05-06 13:53 37.71056 -112.30088 25085 ft 318 kts 184°
2026-05-06 13:53 37.68839 -112.30122 25085 ft 318 kts 176°
2026-05-06 13:53 37.66648 -112.29799 25079 ft 316 kts 167°
2026-05-06 13:53 37.64493 -112.29254 25075 ft 316 kts 166°
2026-05-06 13:54 37.62341 -112.28692 25069 ft 315 kts 167°
2026-05-06 13:54 37.60192 -112.28136 25062 ft 315 kts 167°
2026-05-06 13:54 37.58044 -112.27586 25051 ft 315 kts 167°
2026-05-06 13:54 37.55901 -112.27039 25034 ft 314 kts 167°
2026-05-06 13:55 37.53760 -112.26494 25021 ft 314 kts 167°
2026-05-06 13:55 37.51619 -112.25949 25001 ft 314 kts 167°
2026-05-06 13:55 37.49480 -112.25406 25005 ft 314 kts 167°
2026-05-06 13:55 37.47339 -112.24860 24987 ft 314 kts 167°
2026-05-06 13:56 37.45198 -112.24315 24972 ft 314 kts 167°
2026-05-06 13:56 37.43053 -112.23770 24956 ft 314 kts 167°
2026-05-06 13:56 37.40914 -112.23226 24943 ft 314 kts 167°
2026-05-06 13:56 37.38772 -112.22683 24927 ft 314 kts 167°
2026-05-06 13:57 37.36622 -112.22138 24912 ft 315 kts 167°
2026-05-06 13:57 37.34498 -112.21600 24900 ft 314 kts 167°
2026-05-06 13:57 37.32354 -112.21057 24908 ft 314 kts 167°
2026-05-06 13:57 37.30209 -112.20513 24909 ft 315 kts 167°
2026-05-06 13:58 37.28064 -112.19970 24910 ft 315 kts 167°
2026-05-06 13:58 37.25909 -112.19424 24896 ft 315 kts 167°
2026-05-06 13:58 37.23763 -112.18881 24904 ft 315 kts 167°
2026-05-06 13:58 37.21611 -112.18337 24904 ft 315 kts 167°
2026-05-06 13:59 37.19458 -112.17793 24900 ft 315 kts 167°
2026-05-06 13:59 37.17314 -112.17251 24898 ft 314 kts 167°
2026-05-06 13:59 37.15171 -112.16710 24911 ft 314 kts 167°
2026-05-06 13:59 37.13037 -112.16172 24913 ft 313 kts 167°
2026-05-06 14:00 37.10896 -112.15632 24913 ft 313 kts 167°
2026-05-06 14:00 37.08759 -112.15091 24915 ft 313 kts 167°
2026-05-06 14:00 37.06620 -112.14550 24928 ft 313 kts 167°
2026-05-06 14:00 37.04513 -112.14016 24928 ft 313 kts 167°
2026-05-06 14:01 37.02372 -112.13476 24927 ft 314 kts 167°
2026-05-06 14:01 37.00236 -112.12937 24943 ft 314 kts 168°
2026-05-06 14:01 36.98095 -112.12398 24938 ft 313 kts 167°
2026-05-06 14:01 36.95955 -112.11862 24936 ft 313 kts 167°
2026-05-06 14:02 36.93822 -112.11328 24936 ft 312 kts 167°
2026-05-06 14:02 36.91691 -112.10794 24939 ft 312 kts 167°
2026-05-06 14:02 36.89568 -112.10262 24950 ft 312 kts 167°
2026-05-06 14:02 36.87435 -112.09728 24950 ft 312 kts 167°
2026-05-06 14:03 36.85309 -112.09195 24950 ft 312 kts 167°
2026-05-06 14:03 36.83182 -112.08663 24948 ft 311 kts 167°
2026-05-06 14:03 36.81059 -112.08131 24967 ft 311 kts 167°
2026-05-06 14:03 36.78939 -112.07601 24965 ft 311 kts 167°
2026-05-06 14:04 36.76819 -112.07071 24962 ft 311 kts 167°
2026-05-06 14:04 36.74691 -112.06540 24963 ft 311 kts 167°
2026-05-06 14:04 36.72570 -112.06010 24956 ft 311 kts 167°
2026-05-06 14:04 36.70450 -112.05480 24956 ft 311 kts 167°
2026-05-06 14:05 36.68326 -112.04950 24956 ft 311 kts 167°
2026-05-06 14:05 36.66207 -112.04421 24956 ft 311 kts 167°
2026-05-06 14:05 36.64084 -112.03892 24971 ft 311 kts 167°
2026-05-06 14:05 36.61959 -112.03366 24972 ft 311 kts 167°
2026-05-06 14:06 36.59859 -112.02846 24972 ft 311 kts 167°
2026-05-06 14:06 36.57738 -112.02320 24966 ft 311 kts 167°
2026-05-06 14:06 36.55610 -112.01792 24982 ft 311 kts 167°
2026-05-06 14:06 36.53487 -112.01266 24983 ft 311 kts 167°
2026-05-06 14:07 36.51370 -112.00741 24982 ft 310 kts 167°
2026-05-06 14:07 36.49255 -112.00216 24979 ft 310 kts 167°
2026-05-06 14:07 36.47137 -111.99690 24981 ft 310 kts 167°
2026-05-06 14:07 36.45023 -111.99166 24981 ft 310 kts 167°
2026-05-06 14:08 36.42911 -111.98642 24978 ft 310 kts 167°
2026-05-06 14:08 36.40792 -111.98118 24980 ft 310 kts 167°
2026-05-06 14:08 36.38673 -111.97594 24997 ft 310 kts 167°
2026-05-06 14:08 36.36556 -111.97070 24997 ft 310 kts 167°
2026-05-06 14:09 36.34443 -111.96547 24997 ft 310 kts 167°
2026-05-06 14:09 36.32328 -111.96025 24996 ft 310 kts 167°
2026-05-06 14:09 36.30211 -111.95500 24977 ft 309 kts 167°
2026-05-06 14:09 36.28100 -111.94975 25003 ft 309 kts 167°
2026-05-06 14:10 36.25990 -111.94460 25016 ft 309 kts 167°
2026-05-06 14:10 36.23884 -111.93945 25022 ft 308 kts 167°
2026-05-06 14:10 36.21778 -111.93429 25038 ft 309 kts 167°
2026-05-06 14:10 36.19695 -111.92917 25039 ft 309 kts 167°
2026-05-06 14:11 36.17553 -111.92392 25047 ft 310 kts 166°
2026-05-06 14:11 36.15439 -111.91872 25064 ft 310 kts 167°
2026-05-06 14:11 36.13349 -111.91355 25057 ft 309 kts 167°
2026-05-06 14:11 36.11240 -111.90835 25070 ft 309 kts 166°
2026-05-06 14:12 36.09135 -111.90314 25078 ft 308 kts 166°
2026-05-06 14:12 36.07031 -111.89796 25086 ft 308 kts 166°
2026-05-06 14:12 36.04924 -111.89278 25087 ft 308 kts 166°
2026-05-06 14:12 36.02818 -111.88759 25098 ft 308 kts 166°
2026-05-06 14:13 36.00709 -111.88242 25107 ft 309 kts 166°
2026-05-06 14:13 35.98601 -111.87727 25104 ft 309 kts 166°
2026-05-06 14:13 35.96495 -111.87213 25097 ft 309 kts 166°
2026-05-06 14:13 35.94388 -111.86699 25100 ft 308 kts 166°
2026-05-06 14:14 35.92282 -111.86184 25099 ft 308 kts 166°
2026-05-06 14:14 35.90176 -111.85670 25089 ft 309 kts 166°
2026-05-06 14:14 35.88095 -111.85162 25089 ft 308 kts 166°
2026-05-06 14:14 35.85994 -111.84650 25084 ft 307 kts 166°
2026-05-06 14:15 35.83901 -111.84139 25011 ft 307 kts 166°
2026-05-06 14:15 35.81806 -111.83629 25014 ft 306 kts 166°
2026-05-06 14:15 35.79715 -111.83119 25017 ft 306 kts 166°
2026-05-06 14:15 35.77621 -111.82609 25020 ft 306 kts 166°
2026-05-06 14:16 35.75530 -111.82099 25030 ft 306 kts 166°
2026-05-06 14:16 35.74145 -111.81762 25031 ft 306 kts 166°
2026-05-06 14:16 35.72059 -111.81254 25038 ft 306 kts 166°
2026-05-06 14:16 35.69965 -111.80745 25039 ft 306 kts 166°
2026-05-06 14:17 35.67874 -111.80237 25050 ft 306 kts 166°
2026-05-06 14:17 35.65787 -111.79730 25044 ft 305 kts 166°
2026-05-06 14:17 35.63702 -111.79225 25044 ft 304 kts 167°
2026-05-06 14:17 35.61628 -111.78722 25040 ft 304 kts 167°
2026-05-06 14:18 35.59549 -111.78218 25049 ft 304 kts 167°
2026-05-06 14:18 35.57476 -111.77716 25057 ft 303 kts 167°
2026-05-06 14:18 35.55406 -111.77214 25059 ft 303 kts 167°
2026-05-06 14:18 35.53332 -111.76712 25061 ft 303 kts 167°
2026-05-06 14:19 35.51259 -111.76211 25059 ft 303 kts 167°
2026-05-06 14:19 35.49186 -111.75709 25068 ft 303 kts 167°
2026-05-06 14:19 35.47110 -111.75207 25066 ft 304 kts 167°
2026-05-06 14:19 35.45077 -111.74716 25066 ft 303 kts 167°
2026-05-06 14:20 35.43006 -111.74216 25059 ft 303 kts 167°
2026-05-06 14:20 35.40941 -111.73719 25076 ft 302 kts 167°
2026-05-06 14:20 35.38879 -111.73221 25077 ft 302 kts 167°
2026-05-06 14:20 35.36819 -111.72725 25078 ft 301 kts 167°
2026-05-06 14:21 35.34765 -111.72230 25077 ft 301 kts 167°
2026-05-06 14:21 35.32705 -111.71734 25076 ft 301 kts 167°
2026-05-06 14:21 35.30654 -111.71240 25083 ft 301 kts 167°
2026-05-06 14:21 35.28599 -111.70745 25088 ft 300 kts 167°
2026-05-06 14:22 35.26549 -111.70252 25085 ft 300 kts 167°
2026-05-06 14:22 35.24499 -111.69760 25088 ft 300 kts 167°
2026-05-06 14:22 35.22450 -111.69267 25093 ft 300 kts 167°
2026-05-06 14:22 35.20410 -111.68778 25094 ft 299 kts 167°
2026-05-06 14:23 35.18369 -111.68288 25098 ft 299 kts 166°
2026-05-06 14:23 35.16349 -111.67812 25100 ft 299 kts 167°
2026-05-06 14:23 35.14287 -111.67476 25167 ft 299 kts 173°
2026-05-06 14:23 35.12197 -111.67363 25164 ft 300 kts 178°
2026-05-06 14:24 35.10111 -111.67346 25163 ft 300 kts 178°
2026-05-06 14:24 35.08020 -111.67323 25165 ft 300 kts 178°
2026-05-06 14:24 35.05933 -111.67299 25165 ft 300 kts 178°
2026-05-06 14:24 35.03850 -111.67274 25162 ft 300 kts 178°
2026-05-06 14:25 35.01762 -111.67250 25157 ft 300 kts 178°
2026-05-06 14:25 34.99677 -111.67225 25152 ft 300 kts 178°
2026-05-06 14:25 34.97590 -111.67202 25128 ft 299 kts 178°
2026-05-06 14:25 34.95510 -111.67179 25129 ft 299 kts 177°
2026-05-06 14:26 34.93419 -111.67155 25131 ft 299 kts 178°
2026-05-06 14:26 34.91339 -111.67131 25134 ft 299 kts 178°
2026-05-06 14:26 34.89288 -111.67108 25136 ft 299 kts 177°
2026-05-06 14:26 34.87203 -111.67084 25136 ft 299 kts 177°
2026-05-06 14:27 34.85116 -111.67060 25134 ft 299 kts 178°
2026-05-06 14:27 34.83036 -111.67036 25139 ft 299 kts 178°
2026-05-06 14:27 34.80954 -111.67013 25138 ft 299 kts 178°
2026-05-06 14:27 34.78866 -111.66993 25135 ft 299 kts 177°
2026-05-06 14:28 34.76783 -111.66970 25131 ft 299 kts 178°
2026-05-06 14:28 34.74695 -111.66948 25129 ft 299 kts 177°
2026-05-06 14:28 34.72617 -111.66925 25125 ft 299 kts 177°
2026-05-06 14:28 34.70539 -111.66901 25123 ft 298 kts 177°
2026-05-06 14:29 34.68465 -111.66877 25118 ft 298 kts 177°
2026-05-06 14:29 34.66395 -111.66853 25115 ft 298 kts 177°
2026-05-06 14:29 34.64325 -111.66829 25106 ft 298 kts 177°
2026-05-06 14:29 34.62246 -111.66805 25105 ft 298 kts 177°
2026-05-06 14:30 34.60201 -111.66782 25099 ft 298 kts 177°
2026-05-06 14:30 34.58129 -111.66758 25095 ft 298 kts 177°
2026-05-06 14:30 34.56055 -111.66735 25087 ft 298 kts 177°
2026-05-06 14:30 34.53982 -111.66711 25082 ft 297 kts 177°
2026-05-06 14:31 34.51912 -111.66687 25083 ft 298 kts 177°
2026-05-06 14:31 34.49838 -111.66663 25081 ft 298 kts 177°
2026-05-06 14:31 34.47769 -111.66640 25077 ft 297 kts 177°
2026-05-06 14:31 34.45696 -111.66636 25033 ft 298 kts 179°
2026-05-06 14:32 34.43636 -111.66868 24858 ft 297 kts 186°
2026-05-06 14:32 34.41610 -111.67416 24496 ft 300 kts 193°
2026-05-06 14:32 34.39575 -111.68043 24131 ft 302 kts 192°
2026-05-06 14:32 34.37537 -111.68666 23759 ft 303 kts 192°
2026-05-06 14:33 34.35490 -111.69288 23327 ft 303 kts 193°
2026-05-06 14:33 34.33474 -111.69902 22902 ft 302 kts 193°
2026-05-06 14:33 34.31433 -111.70522 22476 ft 301 kts 193°
2026-05-06 14:33 34.29402 -111.71139 22055 ft 300 kts 193°
2026-05-06 14:34 34.27384 -111.71753 21640 ft 299 kts 193°
2026-05-06 14:34 34.25376 -111.72363 21224 ft 296 kts 192°
2026-05-06 14:34 34.23384 -111.72967 20821 ft 294 kts 193°
2026-05-06 14:34 34.21408 -111.73566 20422 ft 291 kts 193°
2026-05-06 14:35 34.19450 -111.74159 20028 ft 289 kts 193°
2026-05-06 14:35 34.17506 -111.74748 19640 ft 287 kts 193°
2026-05-06 14:35 34.15571 -111.75333 19256 ft 285 kts 193°
2026-05-06 14:35 34.13651 -111.75914 18876 ft 283 kts 194°
2026-05-06 14:36 34.11742 -111.76491 18506 ft 282 kts 194°
2026-05-06 14:36 34.09847 -111.77063 18101 ft 280 kts 194°
2026-05-06 14:36 34.07952 -111.77635 17672 ft 279 kts 194°
2026-05-06 14:36 34.06073 -111.78202 17251 ft 278 kts 194°
2026-05-06 14:37 34.04200 -111.78766 16826 ft 277 kts 194°
2026-05-06 14:37 34.02332 -111.79329 16416 ft 276 kts 194°
2026-05-06 14:37 34.00473 -111.79889 16014 ft 275 kts 194°
2026-05-06 14:37 33.98617 -111.80448 15621 ft 275 kts 194°
2026-05-06 14:38 33.96789 -111.81001 15245 ft 273 kts 194°
2026-05-06 14:38 33.94949 -111.81558 14894 ft 272 kts 194°
2026-05-06 14:38 33.93119 -111.82112 14557 ft 270 kts 194°
2026-05-06 14:38 33.91299 -111.82661 14226 ft 269 kts 194°
2026-05-06 14:39 33.89479 -111.83209 13893 ft 269 kts 194°
2026-05-06 14:39 33.87670 -111.83753 13532 ft 268 kts 194°
2026-05-06 14:39 33.85870 -111.84320 13162 ft 267 kts 197°
2026-05-06 14:39 33.84120 -111.85044 12788 ft 264 kts 201°
2026-05-06 14:40 33.82399 -111.85817 12429 ft 263 kts 201°
2026-05-06 14:40 33.80711 -111.86568 12077 ft 261 kts 201°
2026-05-06 14:40 33.79007 -111.87326 11724 ft 260 kts 201°
2026-05-06 14:40 33.77310 -111.88082 11377 ft 260 kts 201°
2026-05-06 14:41 33.75615 -111.88837 11030 ft 259 kts 201°
2026-05-06 14:41 33.73931 -111.89587 10738 ft 258 kts 201°
2026-05-06 14:41 33.72256 -111.90333 10405 ft 256 kts 201°
2026-05-06 14:41 33.70587 -111.91077 10072 ft 255 kts 201°
2026-05-06 14:42 33.68924 -111.91818 9715 ft 254 kts 201°
2026-05-06 14:42 33.67272 -111.92554 9350 ft 253 kts 201°
2026-05-06 14:42 33.65632 -111.93284 8987 ft 250 kts 201°
2026-05-06 14:42 33.64028 -111.93999 8649 ft 238 kts 201°
2026-05-06 14:43 33.62533 -111.94669 8317 ft 220 kts 201°
2026-05-06 14:43 33.61147 -111.95289 7992 ft 207 kts 201°
2026-05-06 14:43 33.59840 -111.95873 7723 ft 193 kts 201°
2026-05-06 14:43 33.58612 -111.96420 7477 ft 189 kts 201°
2026-05-06 14:44 33.57360 -111.96974 7239 ft 194 kts 201°
2026-05-06 14:44 33.56078 -111.97541 6992 ft 198 kts 201°
2026-05-06 14:44 33.54785 -111.98113 6777 ft 199 kts 201°
2026-05-06 14:45 33.52201 -111.99197 6498 ft 192 kts 194°
2026-05-06 14:45 33.50895 -111.99485 6482 ft 189 kts 190°
2026-05-06 14:45 33.49677 -111.99987 6457 ft 185 kts 211°
2026-05-06 14:45 33.48697 -112.01001 6195 ft 186 kts 233°
2026-05-06 14:46 33.48234 -112.02396 5736 ft 182 kts 271°
2026-05-06 14:46 33.48694 -112.03760 5285 ft 180 kts 315°
2026-05-06 14:46 33.49796 -112.04314 4994 ft 171 kts 357°
2026-05-06 14:46 33.50955 -112.04208 4744 ft 162 kts
2026-05-06 14:47 33.52047 -112.04115 4577 ft 152 kts 359°
2026-05-06 14:47 33.53085 -112.04168 4451 ft 149 kts 354°
2026-05-06 14:47 33.54162 -112.04347 4326 ft 163 kts 350°
2026-05-06 14:47 33.55313 -112.04624 4197 ft 173 kts 347°
2026-05-06 14:48 33.56517 -112.04962 4094 ft 181 kts 346°
2026-05-06 14:48 33.57753 -112.05332 4018 ft 184 kts 346°
2026-05-06 14:48 33.58991 -112.05710 4008 ft 182 kts 346°
2026-05-06 14:48 33.60199 -112.06082 4004 ft 181 kts 346°
2026-05-06 14:49 33.61418 -112.06459 3998 ft 180 kts 346°
2026-05-06 14:49 33.62624 -112.06832 3996 ft 178 kts 346°
2026-05-06 14:49 33.63823 -112.07203 3990 ft 177 kts 346°
2026-05-06 14:49 33.65014 -112.07571 3996 ft 177 kts 346°
2026-05-06 14:50 33.66209 -112.07863 3994 ft 174 kts 359°
2026-05-06 14:50 33.67343 -112.07440 3994 ft 173 kts 36°
2026-05-06 14:50 33.68111 -112.06362 3995 ft 168 kts 54°
2026-05-06 14:50 33.68766 -112.05243 3988 ft 159 kts 55°
2026-05-06 14:51 33.69380 -112.04190 3960 ft 151 kts 54°
2026-05-06 14:51 33.69963 -112.03202 3997 ft 140 kts 53°
2026-05-06 14:51 33.70513 -112.02289 4036 ft 132 kts 53°
2026-05-06 14:51 33.71039 -112.01383 4031 ft 132 kts 54°
2026-05-06 14:52 33.71559 -112.00500 4036 ft 132 kts 53°
2026-05-06 14:52 33.72099 -111.99610 4043 ft 132 kts 53°
2026-05-06 14:52 33.72645 -111.98710 4058 ft 133 kts 52°
2026-05-06 14:52 33.73206 -111.97829 4084 ft 133 kts 52°
2026-05-06 14:53 33.73732 -111.96918 4111 ft 131 kts 61°
2026-05-06 14:53 33.73838 -111.95850 4068 ft 136 kts 105°
2026-05-06 14:53 33.73320 -111.94923 3918 ft 133 kts 132°
2026-05-06 14:53 33.72698 -111.94137 3758 ft 127 kts 131°
2026-05-06 14:54 33.72162 -111.93349 3663 ft 113 kts 125°
2026-05-06 14:54 33.71723 -111.92613 3551 ft 106 kts 123°
2026-05-06 14:54 33.71306 -111.91892 3463 ft 105 kts 124°
2026-05-06 14:54 33.70879 -111.91173 3387 ft 105 kts 123°
2026-05-06 14:55 33.70488 -111.90459 3344 ft 98 kts 122°
2026-05-06 14:55 33.70115 -111.89785 3282 ft 95 kts 122°
2026-05-06 14:55 33.69765 -111.89133 3283 ft 93 kts 121°
2026-05-06 14:55 33.69383 -111.88498 3272 ft 94 kts 137°
2026-05-06 14:56 33.68784 -111.88207 3241 ft 97 kts 167°
2026-05-06 14:56 33.68098 -111.88140 3164 ft 100 kts 174°
2026-05-06 14:56 33.67393 -111.88063 3066 ft 102 kts 172°
2026-05-06 14:56 33.66690 -111.87975 2932 ft 100 kts 173°
2026-05-06 14:57 33.66003 -111.87901 2717 ft 99 kts 174°
2026-05-06 14:57 33.65329 -111.87937 2501 ft 96 kts 194°
2026-05-06 14:57 33.64733 -111.88275 2293 ft 94 kts 215°
2026-05-06 14:57 33.64240 -111.88785 2078 ft 94 kts 223°
2026-05-06 14:58 33.63776 -111.89335 1857 ft 93 kts 224°
2026-05-06 14:58 33.63322 -111.89858 1650 ft 88 kts 224°
2026-05-06 14:58 33.62888 -111.90363 1501 ft 83 kts 224°
2026-05-06 14:58 33.62563 -111.90738 1482 ft 29 kts 225°
2026-05-06 14:59 33.62450 -111.90867 1480 ft 17 kts 226°
2026-05-06 14:59 33.62436 -111.90930 1485 ft 3 kts 314°
2026-05-06 14:59 33.62456 -111.90971 1484 ft 8 kts 253°
2026-05-06 14:59 33.62412 -111.91027 1479 ft 11 kts 226°
2026-05-06 15:00 33.62349 -111.91100 1472 ft 15 kts 223°
2026-05-06 15:00 33.62281 -111.91178 1472 ft 12 kts 224°
2026-05-06 15:00 33.62216 -111.91254 1467 ft 14 kts 228°
2026-05-06 15:00 33.62139 -111.91343 1464 ft 17 kts 224°
2026-05-06 15:01 33.62056 -111.91438 1463 ft 15 kts 224°
2026-05-06 15:01 33.62016 -111.91483 1461 ft 3 kts 224°
2026-05-06 15:01 33.62018 -111.91511 1463 ft 5 kts 321°
2026-05-06 15:01 33.62054 -111.91552 1455 ft 8 kts 314°
2026-05-06 15:02 33.62082 -111.91601 1459 ft 7 kts 257°
2026-05-06 15:02 33.62060 -111.91633 1461 ft 9 kts 223°
2026-05-06 15:02 33.62013 -111.91688 1459 ft 7 kts 224°
2026-05-06 15:02 33.62009 -111.91692 1459 ft 0 kts 223°